Kuchera_Ratio
0.0 0.0 0.0 0.0 0.0 0.0 0.0 0.0 0.0 0.0 0.0 0.0 0.0 0.0 0.0 0.0 0.0 0.0 0.0 0.0 0.0 6.0 0.4 0.0 0.0 2.9 2.5 1.8 10.3 5.5 6.2 5.1 9.3 15.3 15.5 15.4 15.2 13.3 13.8 11.1 12.9 14.6 15.5 17.9 15.1 19.9 20.3 0.0 0.0 10.7 4.3 0.0 0.0 0.0
0.0 0.0 0.0 0.0 0.0 0.0 0.0 0.0 0.0 0.0 0.0 0.0 0.0 0.0 0.0 0.0 0.0 0.0 0.0 0.0 0.0 1.4 1.7 0.0 0.0 0.0 0.0 0.0 5.4 6.0 5.4 5.4 3.3 11.3 12.3 13.2 15.1 13.3 14.0 17.5 7.1 15.6 13.8 13.9 13.4 13.3 2.0 0.0 0.1 0.0 0.0 0.0 0.0 0.0
0.0 0.0 0.0 0.0 0.0 0.0 0.0 0.0 0.0 0.0 0.0 0.0 0.0 0.0 0.0 0.0 0.0 0.0 0.0 0.0 0.0 7.1 5.5 1.4 0.0 0.0 0.0 0.0 0.0 6.3 5.6 0.0 4.5 0.6 8.4 13.4 15.8 12.2 16.9 16.3 12.7 9.3 1.9 12.4 12.0 5.7 2.5 0.0 0.0 0.0 0.0 0.0 0.0 0.0
0.0 0.0 0.0 0.0 0.0 0.0 0.0 0.0 0.0 0.0 0.0 0.0 0.0 0.0 0.0 0.0 0.0 0.0 0.0 0.0 0.0 5.3 13.1 7.4 0.0 0.0 0.0 0.0 0.0 0.0 0.0 0.0 0.0 0.7 7.5 14.1 13.6 6.2 13.3 12.5 13.0 9.9 7.7 11.7 11.3 5.3 2.1 0.0 0.0 0.0 0.0 0.0 0.0 0.0
0.0 0.0 0.0 0.0 0.0 0.0 0.0 0.0 0.0 0.0 0.0 0.0 0.0 0.0 0.0 0.0 0.0 0.0 0.0 0.0 0.0 5.4 12.3 10.0 0.0 0.0 0.0 0.0 0.0 0.0 0.0 0.0 5.8 7.8 14.0 14.4 9.2 12.9 10.4 11.7 13.1 5.0 9.3 13.4 13.9 3.0 2.7 0.5 0.0 0.0 0.0 0.0 0.0 0.0
0.0 0.0 0.0 0.0 0.0 0.0 0.0 0.0 0.0 0.0 0.0 0.0 0.0 0.0 0.0 0.0 0.0 0.0 2.5 0.0 0.0 0.0 8.9 15.4 0.0 0.0 0.0 0.0 0.0 0.0 0.0 0.0 5.3 7.7 10.3 7.3 4.5 8.6 15.1 15.3 3.7 0.7 0.0 0.0 3.1 0.0 0.0 0.0 0.0 0.0 0.0 0.0 0.0 0.0
0.0 0.0 0.0 0.0 0.0 0.0 0.0 0.0 0.0 0.0 0.0 0.0 0.0 0.0 0.0 0.0 0.0 1.4 5.0 0.3 0.0 0.0 12.1 16.0 12.2 0.0 0.0 0.0 0.0 0.0 0.0 0.0 4.8 6.3 8.8 8.6 7.5 6.6 13.6 14.7 5.1 0.3 0.0 0.0 0.0 2.5 5.1 2.9 4.9 0.0 0.7 0.0 0.0 0.0
0.0 0.0 0.0 0.0 0.0 0.0 0.0 0.0 0.0 0.0 0.0 0.0 0.0 0.0 0.0 0.0 0.0 0.0 0.0 0.0 0.0 0.8 4.7 15.9 14.9 7.3 0.0 4.2 5.2 0.0 5.2 5.0 6.2 7.6 7.6 10.4 7.4 7.5 14.2 6.0 1.5 0.0 0.0 1.7 2.9 2.1 2.7 1.3 0.7 0.1 0.0 0.0 3.1 3.7
0.0 0.0 0.0 0.0 0.0 0.0 0.0 0.0 0.0 0.0 0.0 0.0 0.0 0.0 0.0 0.0 2.0 0.0 0.0 0.0 0.0 1.9 11.8 12.9 14.9 14.7 0.0 6.0 5.5 5.0 6.0 13.9 7.1 13.8 11.5 8.9 13.7 14.7 8.5 3.5 1.1 3.7 4.5 5.3 3.5 3.3 2.7 4.5 4.9 3.5 3.1 5.5 6.5 6.3
0.0 0.0 0.0 0.0 0.0 0.0 0.0 0.0 0.0 0.0 0.0 0.0 0.0 3.3 11.8 0.9 0.0 0.0 0.5 6.3 5.6 5.4 6.4 13.3 8.7 12.9 7.6 8.7 10.2 9.1 7.3 12.5 14.7 11.9 6.6 12.6 12.6 1.5 0.9 1.9 2.3 2.2 2.1 3.9 8.9 9.9 8.5 8.3 8.1 7.3 7.1 6.3 6.7 7.1
0.0 0.0 0.0 0.0 0.0 0.0 0.0 0.0 0.0 0.0 0.0 0.1 4.7 4.9 0.0 0.0 0.9 4.4 11.7 13.5 11.1 14.6 10.8 9.7 8.2 12.8 3.0 12.5 12.9 9.3 14.3 12.6 16.3 12.3 12.7 12.6 12.7 8.3 0.9 1.9 0.9 1.5 1.3 2.1 2.7 3.7 4.3 7.7 8.9 8.7 8.5 7.5 7.1 5.7
0.0 0.0 0.0 0.0 0.0 0.0 0.0 0.0 0.0 0.0 0.0 0.0 0.0 0.0 0.0 1.5 11.8 14.0 15.6 12.4 13.5 13.1 7.4 9.9 9.3 7.5 6.9 4.9 10.1 11.8 13.9 13.8 16.1 8.5 13.4 14.4 12.6 3.9 2.3 2.1 1.8 1.7 2.5 4.1 3.7 6.3 5.3 7.1 7.7 7.9 9.1 8.7 7.9 6.9
0.0 0.0 0.0 0.0 0.0 0.0 0.0 0.0 0.0 0.0 0.0 0.0 0.1 6.9 11.1 11.8 16.2 18.2 18.8 15.1 13.1 6.4 6.5 6.6 11.9 7.9 7.5 7.3 11.1 13.5 14.7 16.2 4.3 14.5 13.9 13.5 5.3 2.3 2.3 1.0 1.9 0.9 3.0 5.7 6.9 5.5 5.7 5.9 5.9 7.7 9.7 8.1 8.3 8.3
0.0 0.0 0.0 0.0 0.0 0.0 0.0 0.0 0.0 0.0 0.0 5.9 11.3 15.7 15.5 15.5 15.1 13.2 13.1 12.4 5.4 6.2 5.6 5.8 6.3 10.3 8.5 11.5 12.8 14.5 12.2 10.9 16.1 15.8 14.9 11.9 5.9 3.5 0.9 1.9 3.8 5.5 7.8 10.1 9.3 7.7 8.7 7.9 7.7 7.1 8.3 7.9 9.7 9.9
0.0 0.0 0.0 0.0 0.0 0.0 0.0 0.0 0.0 0.0 2.1 9.9 10.6 15.3 15.0 9.1 7.3 7.2 7.0 7.2 4.9 0.4 5.9 7.0 8.4 7.7 13.0 12.9 12.2 12.6 15.5 16.4 15.4 14.7 12.9 6.5 3.7 4.3 3.9 4.0 5.5 7.9 9.1 10.5 9.9 11.7 12.1 9.7 7.8 7.5 7.3 7.7 9.3 9.3
0.0 0.0 0.0 0.0 0.0 0.0 0.0 0.0 0.0 0.0 2.9 8.5 9.3 13.9 8.4 10.2 11.2 8.7 9.0 9.0 1.0 2.7 2.6 5.8 13.4 13.5 13.1 12.2 13.5 14.6 15.0 15.0 13.7 11.5 7.4 7.1 6.3 4.7 5.3 5.8 7.1 8.2 8.8 10.0 10.2 10.0 10.5 11.1 8.9 7.7 7.3 7.7 8.3 9.9
0.0 0.0 0.0 0.0 0.0 0.0 0.0 0.0 1.9 6.7 10.5 11.7 10.5 8.9 9.0 9.3 10.0 8.8 8.8 9.0 0.0 8.7 14.2 10.0 13.4 13.6 11.6 13.4 13.3 8.3 16.0 13.2 9.3 10.8 6.9 2.9 5.6 5.8 5.7 6.9 8.0 8.3 8.7 9.3 8.5 8.6 9.2 8.0 7.0 7.6 8.9 8.5 8.3 8.7
0.0 0.0 0.0 0.0 0.0 0.0 0.1 0.5 6.3 8.5 12.1 11.3 11.3 9.3 8.9 8.8 8.9 8.7 2.8 1.0 5.9 9.3 8.3 12.4 7.9 13.0 16.6 14.2 15.5 12.5 7.6 7.7 8.3 7.3 7.1 4.1 4.0 5.1 5.4 7.7 7.9 7.9 8.0 7.5 7.4 8.2 7.1 9.5 9.7 9.7 8.5 7.5 9.5 8.7
0.0 0.0 0.0 0.0 0.0 1.5 7.1 6.3 4.5 12.9 11.2 10.1 9.2 3.1 7.3 6.8 0.9 0.5 0.8 1.2 1.6 1.7 7.9 9.7 14.2 13.8 12.9 9.9 11.3 7.8 8.4 9.2 10.0 10.0 2.7 3.3 6.4 8.1 7.0 6.5 6.2 7.1 6.5 7.2 8.0 9.0 7.7 7.1 8.2 8.1 7.9 8.6 8.9 10.2
0.0 0.0 0.0 0.0 0.0 3.7 6.9 8.2 0.0 9.9 10.8 8.4 5.7 8.5 8.5 8.3 2.1 1.1 1.2 1.9 5.3 8.7 11.7 13.1 14.1 9.7 7.3 6.3 5.8 7.9 5.5 3.5 6.4 12.2 12.9 7.9 6.1 6.4 7.9 8.1 8.3 5.7 5.4 6.1 6.8 6.8 7.7 8.8 7.9 8.6 9.0 9.3 10.9 11.5
0.0 0.0 0.0 0.0 0.0 0.0 6.1 6.3 9.5 8.9 9.3 9.9 8.7 8.8 8.9 6.5 9.0 9.0 9.3 3.2 8.3 10.5 12.9 10.3 8.5 4.9 1.2 4.7 4.4 5.4 6.8 8.4 8.8 9.3 12.6 14.6 9.8 7.8 8.7 6.2 5.7 6.2 9.6 10.0 10.2 10.4 10.0 11.3 8.5 9.5 11.4 11.4 8.2 8.4
0.0 0.0 0.5 0.0 5.6 4.9 7.2 2.8 6.6 3.2 10.1 10.2 10.2 9.7 10.2 10.6 10.3 10.0 4.1 9.6 9.5 8.1 7.3 5.7 4.4 3.3 3.6 7.4 8.0 6.8 6.9 7.3 7.8 7.5 7.2 7.8 10.1 10.1 10.3 9.2 10.6 10.3 10.5 11.0 10.1 12.1 11.3 9.3 10.7 12.5 12.8 12.8 12.1 12.0
0.0 0.0 1.9 3.1 11.3 12.6 12.7 1.0 12.0 10.3 15.1 12.2 10.1 11.1 12.3 9.5 8.1 1.9 9.4 8.8 8.7 0.0 0.9 3.6 6.9 7.7 9.5 9.3 7.8 7.2 8.4 9.7 11.7 11.4 9.1 9.4 8.2 7.6 8.2 8.7 9.0 12.6 13.1 12.2 11.4 12.1 12.3 13.0 13.3 14.1 14.2 13.9 14.0 14.1
0.0 5.7 12.1 12.6 11.9 13.8 10.5 12.9 9.9 11.3 10.6 12.7 14.5 14.9 14.3 8.6 7.1 8.0 14.0 8.5 12.4 8.9 10.3 10.3 9.2 10.3 9.7 9.2 11.3 11.1 10.5 8.7 10.0 9.7 8.8 10.1 12.6 12.8 12.2 12.6 12.7 12.8 12.5 12.2 13.3 14.8 14.5 14.9 14.7 15.4 15.7 15.9 16.1 15.9
10.9 13.5 13.1 14.9 12.8 13.6 15.5 15.6 14.6 13.0 16.0 14.0 14.6 14.7 14.2 7.7 14.4 14.3 14.1 13.4 13.3 12.9 13.5 12.9 12.8 13.1 14.1 13.8 13.1 12.2 8.9 11.5 13.0 13.9 12.6 12.9 13.9 14.6 14.8 14.2 14.0 13.0 12.9 15.3 16.5 16.8 17.0 17.2 17.2 17.1 17.1 16.9 15.9 15.7
14.6 13.0 15.0 14.1 14.5 16.1 14.9 16.1 16.1 15.8 15.3 15.4 14.8 8.8 8.5 13.9 15.2 15.9 15.0 14.1 14.8 13.4 13.7 14.3 14.4 14.2 14.1 12.6 13.8 14.5 14.3 13.2 13.5 15.3 15.1 14.1 14.5 15.2 16.5 17.0 17.9 16.8 14.8 16.7 17.6 18.8 18.7 18.6 18.5 18.2 17.8 17.3 16.4 16.0
15.9 15.3 11.1 6.1 8.3 9.3 13.4 11.5 10.8 14.7 15.4 15.4 15.0 15.1 15.1 16.5 18.1 15.3 13.3 13.5 13.5 12.1 12.3 12.5 13.1 14.5 15.9 15.3 14.8 13.9 13.7 14.0 14.3 14.9 13.6 13.9 13.4 13.5 15.2 18.5 20.2 17.8 16.3 17.6 18.2 18.4 18.9 18.8 18.6 18.1 17.6 16.9 16.3 16.1
13.1 12.1 16.0 12.0 12.3 11.9 16.4 16.3 16.2 16.2 15.8 11.5 13.3 16.1 16.8 16.9 15.9 13.4 12.4 12.5 12.8 11.3 12.2 14.5 14.2 14.2 15.6 15.7 15.2 15.3 15.2 15.2 14.9 14.5 14.8 15.0 15.2 15.3 15.4 16.6 17.3 15.7 17.3 18.0 18.1 18.0 17.9 18.2 18.5 18.6 18.1 17.9 17.3 16.5
13.9 11.3 12.0 16.2 12.9 12.3 12.6 15.4 15.6 11.4 12.5 13.6 16.6 16.4 14.8 13.0 11.7 12.8 13.6 14.0 12.6 15.0 15.8 16.3 16.6 14.7 15.2 15.0 15.2 15.3 15.5 16.3 18.6 20.3 22.5 21.7 20.1 18.8 16.9 17.0 17.2 18.3 18.6 18.8 19.1 17.8 17.9 17.8 17.9 18.1 18.1 17.8 17.1 16.3
13.3 9.1 13.1 13.7 17.0 17.2 13.0 12.3 12.5 12.5 10.4 10.8 12.0 13.1 12.9 12.7 13.6 12.0 13.6 14.9 15.5 16.3 16.3 16.5 16.8 17.0 17.5 17.6 17.9 17.7 15.9 15.9 16.5 19.0 21.0 21.3 20.0 17.7 17.6 17.5 18.1 18.6 18.8 19.6 20.2 19.9 18.2 18.3 18.2 18.7 18.8 18.5 18.1 18.1
11.9 12.7 13.2 13.1 15.1 12.9 12.7 11.6 12.5 12.7 12.9 13.1 12.2 16.1 16.4 14.3 15.8 13.4 14.3 14.7 15.4 16.4 16.3 16.7 16.9 17.0 17.4 18.0 18.6 20.8 20.3 17.6 17.9 18.7 18.5 19.2 18.9 19.1 18.8 18.7 18.7 19.0 19.8 20.1 20.1 20.4 20.8 20.8 20.6 20.8 20.5 20.1 19.3 18.7
12.7 14.3 14.4 18.0 15.6 13.9 10.5 15.3 15.4 15.6 15.7 16.1 16.5 16.6 16.9 17.2 17.6 17.4 14.8 14.6 16.5 16.6 16.6 16.7 17.2 17.4 16.8 16.9 17.4 17.4 18.0 18.4 19.0 19.8 20.2 20.4 20.6 20.5 20.0 19.8 19.4 19.5 20.1 20.8 20.8 21.0 21.1 21.0 20.6 20.3 20.3 20.1 19.6 19.0
14.3 14.3 14.8 15.6 15.8 15.9 16.2 16.6 17.0 17.0 16.9 17.1 17.2 17.3 17.4 17.8 18.8 18.2 15.5 15.4 16.0 17.3 17.4 16.2 15.9 16.2 16.7 17.2 17.7 18.4 18.9 19.8 20.5 20.2 20.1 20.0 20.3 19.3 18.7 18.9 19.9 20.5 20.9 21.0 20.7 20.3 20.6 20.9 20.9 20.9 21.0 21.1 21.0 20.5